JBU1606 KTPA-KISP

Flight info

Callsign JBU1606
Flight time 2h 13m
Altitude 35000
Route N0446F350 BAYPO2 CAMJO Q109 DFENC DCT SAWED DCT KALDA SARDI1
Aircraft A320/M-SDE3FGHIRWY/LB1

Departure

Time 2026-04-20 16:26
Airport Tampa International Airport (KTPA)

Arrival

Time 2026-04-20 18:40
Airport Long Island MacArthur Airport (KISP)
Time Latitude Longitude Altitude Speed Heading
2026-04-20 15:57 27.98082 -82.53879 40 ft 0 kts 93°
2026-04-20 16:15 27.98082 -82.53883 40 ft 2 kts 93°
2026-04-20 16:16 27.98083 -82.53901 40 ft 3 kts 93°
2026-04-20 16:16 27.98085 -82.53923 40 ft 3 kts 103°
2026-04-20 16:16 27.98092 -82.53944 40 ft 3 kts 121°
2026-04-20 16:16 27.98106 -82.53962 40 ft 3 kts 140°
2026-04-20 16:17 27.98123 -82.53974 40 ft 3 kts 156°
2026-04-20 16:17 27.98143 -82.53981 40 ft 3 kts 171°
2026-04-20 16:17 27.98151 -82.53982 40 ft 0 kts 173°
2026-04-20 16:20 27.98132 -82.53975 40 ft 5 kts 158°
2026-04-20 16:20 27.98093 -82.53970 40 ft 6 kts 181°
2026-04-20 16:20 27.98045 -82.53972 40 ft 7 kts 188°
2026-04-20 16:21 27.98026 -82.54020 40 ft 8 kts 268°
2026-04-20 16:21 27.97990 -82.54055 40 ft 8 kts 180°
2026-04-20 16:21 27.97926 -82.54056 40 ft 12 kts 182°
2026-04-20 16:21 27.97814 -82.54059 40 ft 20 kts 180°
2026-04-20 16:22 27.97662 -82.54064 40 ft 23 kts 180°
2026-04-20 16:22 27.97500 -82.54069 40 ft 23 kts 182°
2026-04-20 16:22 27.97333 -82.54075 40 ft 25 kts 180°
2026-04-20 16:22 27.97156 -82.54079 40 ft 26 kts 181°
2026-04-20 16:23 27.96972 -82.54083 40 ft 27 kts 181°
2026-04-20 16:23 27.96781 -82.54088 40 ft 28 kts 181°
2026-04-20 16:23 27.96584 -82.54095 40 ft 28 kts 182°
2026-04-20 16:23 27.96439 -82.54102 40 ft 16 kts 181°
2026-04-20 16:24 27.96371 -82.54104 40 ft 8 kts 182°
2026-04-20 16:24 27.96338 -82.54140 40 ft 8 kts 270°
2026-04-20 16:24 27.96339 -82.54219 40 ft 2 kts 281°
2026-04-20 16:24 27.96351 -82.54231 40 ft 3 kts 331°
2026-04-20 16:25 27.96367 -82.54234 40 ft 0 kts
2026-04-20 16:25 27.96370 -82.54234 40 ft 5 kts
2026-04-20 16:26 27.96625 -82.54225 40 ft 71 kts
2026-04-20 16:26 27.97334 -82.54202 41 ft 131 kts
2026-04-20 16:26 27.98400 -82.54167 157 ft 164 kts
2026-04-20 16:26 27.99535 -82.54147 785 ft 161 kts
2026-04-20 16:27 28.00649 -82.54231 1301 ft 168 kts 359°
2026-04-20 16:27 28.01883 -82.54347 1589 ft 186 kts
2026-04-20 16:27 28.03231 -82.54416 1907 ft 204 kts
2026-04-20 16:27 28.04716 -82.54470 2305 ft 222 kts
2026-04-20 16:28 28.06315 -82.54635 2786 ft 239 kts 356°
2026-04-20 16:28 28.08002 -82.55000 3347 ft 253 kts 352°
2026-04-20 16:28 28.09745 -82.55422 4066 ft 258 kts 351°
2026-04-20 16:28 28.11517 -82.55823 4853 ft 261 kts 350°
2026-04-20 16:29 28.13318 -82.56201 5600 ft 265 kts 350°
2026-04-20 16:29 28.15145 -82.56583 6347 ft 268 kts 350°
2026-04-20 16:29 28.17012 -82.56987 7098 ft 271 kts 349°
2026-04-20 16:29 28.18870 -82.57393 7868 ft 274 kts 349°
2026-04-20 16:30 28.20788 -82.57671 8617 ft 280 kts 356°
2026-04-20 16:30 28.22764 -82.57751 9381 ft 280 kts 358°
2026-04-20 16:30 28.24729 -82.57770 10062 ft 283 kts 359°
2026-04-20 16:30 28.26724 -82.57794 10605 ft 292 kts 358°
2026-04-20 16:31 28.28799 -82.57845 10972 ft 305 kts 357°
2026-04-20 16:31 28.30940 -82.57915 11289 ft 319 kts 357°
2026-04-20 16:31 28.33209 -82.57991 11583 ft 333 kts 357°
2026-04-20 16:31 28.35555 -82.58064 12022 ft 340 kts 357°
2026-04-20 16:32 28.37936 -82.58129 12597 ft 343 kts 356°
2026-04-20 16:32 28.40332 -82.58187 13157 ft 346 kts 356°
2026-04-20 16:32 28.42759 -82.58242 13694 ft 350 kts 356°
2026-04-20 16:32 28.45213 -82.58302 14197 ft 354 kts 356°
2026-04-20 16:33 28.47689 -82.58365 14686 ft 358 kts 355°
2026-04-20 16:33 28.50164 -82.58429 15172 ft 361 kts 355°
2026-04-20 16:33 28.52691 -82.58493 15676 ft 363 kts 355°
2026-04-20 16:33 28.55224 -82.58557 16169 ft 366 kts 355°
2026-04-20 16:34 28.57782 -82.58621 16644 ft 369 kts 355°
2026-04-20 16:34 28.60358 -82.58685 17114 ft 371 kts 354°
2026-04-20 16:34 28.62953 -82.58750 17577 ft 374 kts 354°
2026-04-20 16:34 28.65565 -82.58815 18033 ft 376 kts 354°
2026-04-20 16:35 28.68187 -82.58993 18478 ft 377 kts 349°
2026-04-20 16:35 28.70768 -82.59322 18908 ft 378 kts 348°
2026-04-20 16:35 28.73388 -82.59703 19342 ft 380 kts 347°
2026-04-20 16:35 28.76022 -82.60100 19776 ft 382 kts 347°
2026-04-20 16:36 28.78673 -82.60486 20207 ft 385 kts 347°
2026-04-20 16:36 28.81336 -82.60858 20635 ft 387 kts 347°
2026-04-20 16:36 28.84018 -82.61224 21048 ft 389 kts 347°
2026-04-20 16:36 28.86709 -82.61593 21452 ft 390 kts 347°
2026-04-20 16:37 28.89425 -82.61970 21851 ft 392 kts 347°
2026-04-20 16:37 28.92142 -82.62351 22238 ft 394 kts 347°
2026-04-20 16:37 28.94834 -82.62729 22610 ft 396 kts 347°
2026-04-20 16:37 28.97575 -82.63114 22979 ft 397 kts 347°
2026-04-20 16:38 29.00326 -82.63499 23339 ft 399 kts 346°
2026-04-20 16:38 29.03103 -82.63888 23693 ft 401 kts 346°
2026-04-20 16:38 29.05885 -82.64277 24038 ft 403 kts 346°
2026-04-20 16:38 29.08674 -82.64669 24374 ft 404 kts 346°
2026-04-20 16:39 29.11475 -82.65062 24706 ft 406 kts 346°
2026-04-20 16:39 29.14281 -82.65457 25023 ft 408 kts 346°
2026-04-20 16:39 29.17106 -82.65853 25333 ft 409 kts 346°
2026-04-20 16:39 29.19940 -82.66250 25640 ft 411 kts 346°
2026-04-20 16:40 29.22754 -82.66646 25935 ft 413 kts 346°
2026-04-20 16:40 29.25605 -82.67047 26232 ft 414 kts 345°
2026-04-20 16:40 29.28479 -82.67451 26523 ft 416 kts 345°
2026-04-20 16:40 29.31360 -82.67857 26813 ft 418 kts 345°
2026-04-20 16:41 29.34248 -82.68264 27096 ft 419 kts 345°
2026-04-20 16:41 29.37152 -82.68673 27368 ft 421 kts 345°
2026-04-20 16:41 29.40067 -82.69084 27641 ft 422 kts 345°
2026-04-20 16:41 29.43021 -82.69344 27895 ft 430 kts 351°
2026-04-20 16:42 29.46037 -82.69373 28163 ft 433 kts 352°
2026-04-20 16:42 29.49063 -82.69334 28410 ft 436 kts 353°
2026-04-20 16:42 29.52101 -82.69271 28661 ft 437 kts 353°
2026-04-20 16:42 29.55111 -82.69223 28907 ft 438 kts 352°
2026-04-20 16:43 29.58164 -82.69201 29163 ft 439 kts 352°
2026-04-20 16:43 29.61241 -82.69197 29398 ft 440 kts 351°
2026-04-20 16:43 29.64316 -82.69194 29635 ft 442 kts 351°
2026-04-20 16:43 29.67390 -82.69180 29860 ft 443 kts 352°
2026-04-20 16:44 29.70486 -82.69156 30089 ft 445 kts 352°
2026-04-20 16:44 29.73581 -82.69129 30403 ft 444 kts 351°
2026-04-20 16:44 29.76662 -82.69104 30722 ft 443 kts 351°
2026-04-20 16:44 29.79742 -82.69085 31029 ft 442 kts 351°
2026-04-20 16:45 29.82789 -82.69068 31335 ft 441 kts 351°
2026-04-20 16:45 29.85859 -82.69051 31662 ft 439 kts 351°
2026-04-20 16:45 29.88907 -82.69031 31980 ft 437 kts 351°
2026-04-20 16:45 29.91949 -82.69011 32297 ft 436 kts 350°
2026-04-20 16:46 29.94981 -82.68991 32602 ft 434 kts 350°
2026-04-20 16:46 29.97957 -82.68972 32896 ft 432 kts 350°
2026-04-20 16:46 30.01000 -82.68953 33192 ft 431 kts 350°
2026-04-20 16:46 30.03952 -82.68935 33468 ft 429 kts 349°
2026-04-20 16:47 30.06938 -82.68917 33750 ft 427 kts 349°
2026-04-20 16:47 30.09908 -82.68898 34017 ft 426 kts 349°
2026-04-20 16:47 30.12870 -82.68879 34279 ft 424 kts 349°
2026-04-20 16:47 30.15824 -82.68861 34527 ft 423 kts 349°
2026-04-20 16:48 30.18757 -82.68843 34772 ft 421 kts 349°
2026-04-20 16:48 30.21690 -82.68824 34999 ft 420 kts 348°
2026-04-20 16:48 30.24608 -82.68805 35217 ft 419 kts 348°
2026-04-20 16:48 30.27520 -82.68788 35362 ft 419 kts 348°
2026-04-20 16:49 30.33365 -82.68756 35357 ft 418 kts 348°
2026-04-20 16:49 30.39196 -82.68717 35359 ft 417 kts 348°
2026-04-20 16:50 30.44954 -82.68679 35362 ft 416 kts 348°
2026-04-20 16:50 30.50760 -82.68588 35363 ft 422 kts 352°
2026-04-20 16:51 30.56668 -82.67495 35365 ft 433 kts 358°
2026-04-20 16:51 30.62599 -82.66133 35367 ft 433 kts 358°
2026-04-20 16:52 30.68519 -82.64870 35363 ft 432 kts 357°
2026-04-20 16:52 30.74443 -82.63638 35358 ft 432 kts 357°
2026-04-20 16:53 30.80330 -82.62370 35354 ft 433 kts 358°
2026-04-20 16:53 30.86248 -82.61098 35363 ft 432 kts 357°
2026-04-20 16:54 30.92171 -82.59832 35391 ft 431 kts 357°
2026-04-20 16:54 30.98077 -82.58564 35424 ft 430 kts 357°
2026-04-20 16:55 31.03956 -82.57301 35416 ft 429 kts 357°
2026-04-20 16:55 31.09790 -82.55660 35362 ft 449 kts
2026-04-20 16:56 31.15499 -82.52325 35334 ft 463 kts 16°
2026-04-20 16:56 31.21134 -82.48679 35335 ft 462 kts 15°
2026-04-20 16:57 31.26817 -82.45244 35384 ft 458 kts 14°
2026-04-20 16:57 31.32511 -82.41859 35385 ft 460 kts 14°
2026-04-20 16:58 31.38191 -82.38371 35372 ft 461 kts 15°
2026-04-20 16:58 31.43831 -82.34909 35365 ft 460 kts 15°
2026-04-20 16:59 31.49507 -82.31455 35420 ft 459 kts 15°
2026-04-20 16:59 31.55163 -82.27995 35431 ft 458 kts 15°
2026-04-20 17:00 31.63643 -82.22796 35374 ft 457 kts 15°
2026-04-20 17:01 31.69284 -82.19336 35343 ft 457 kts 15°
2026-04-20 17:01 31.74894 -82.15884 35347 ft 458 kts 15°
2026-04-20 17:02 31.80542 -82.12407 35348 ft 459 kts 15°
2026-04-20 17:02 31.86207 -82.08916 35350 ft 460 kts 15°
2026-04-20 17:03 31.91879 -82.05415 35357 ft 461 kts 15°
2026-04-20 17:03 31.97532 -82.01921 35350 ft 462 kts 15°
2026-04-20 17:04 32.03217 -81.98397 35386 ft 461 kts 15°
2026-04-20 17:04 32.07956 -81.95459 35399 ft 461 kts 15°
2026-04-20 17:05 32.13631 -81.91883 35412 ft 467 kts 20°
2026-04-20 17:05 32.17143 -81.88747 35394 ft 483 kts 31°
2026-04-20 17:05 32.19641 -81.86055 35393 ft 487 kts 33°
2026-04-20 17:06 32.23705 -81.81432 35396 ft 487 kts 34°
2026-04-20 17:06 32.28664 -81.75984 35396 ft 484 kts 32°
2026-04-20 17:07 32.33670 -81.70675 35387 ft 484 kts 32°
2026-04-20 17:07 32.38654 -81.65266 35375 ft 486 kts 33°
2026-04-20 17:08 32.43612 -81.59825 35365 ft 485 kts 32°
2026-04-20 17:08 32.48555 -81.54455 35391 ft 484 kts 32°
2026-04-20 17:09 32.53509 -81.49060 35422 ft 483 kts 32°
2026-04-20 17:09 32.58451 -81.43650 35412 ft 483 kts 32°
2026-04-20 17:10 32.63389 -81.38244 35386 ft 483 kts 32°
2026-04-20 17:10 32.68328 -81.32834 35361 ft 483 kts 32°
2026-04-20 17:11 32.73267 -81.27412 35345 ft 483 kts 33°
2026-04-20 17:11 32.78159 -81.22028 35356 ft 482 kts 33°
2026-04-20 17:12 32.83087 -81.16605 35337 ft 482 kts 33°
2026-04-20 17:12 32.88002 -81.11179 35331 ft 482 kts 33°
2026-04-20 17:13 32.92921 -81.05745 35323 ft 482 kts 33°
2026-04-20 17:13 32.97845 -81.00295 35325 ft 482 kts 33°
2026-04-20 17:14 33.02742 -80.94869 35327 ft 483 kts 33°
2026-04-20 17:14 33.07662 -80.89408 35328 ft 483 kts 33°
2026-04-20 17:15 33.12579 -80.83938 35323 ft 483 kts 33°
2026-04-20 17:15 33.17504 -80.78452 35304 ft 483 kts 33°
2026-04-20 17:16 33.22391 -80.73001 35305 ft 484 kts 33°
2026-04-20 17:16 33.27311 -80.67506 35307 ft 484 kts 33°
2026-04-20 17:17 33.32236 -80.61992 35311 ft 484 kts 33°
2026-04-20 17:17 33.37157 -80.56473 35321 ft 484 kts 33°
2026-04-20 17:18 33.42041 -80.50990 35325 ft 484 kts 33°
2026-04-20 17:18 33.46883 -80.45340 35316 ft 492 kts 41°
2026-04-20 17:18 33.48915 -80.41965 35300 ft 504 kts 52°
2026-04-20 17:19 33.50632 -80.38281 35319 ft 507 kts 55°
2026-04-20 17:19 33.53804 -80.30750 35309 ft 509 kts 56°
2026-04-20 17:20 33.57101 -80.23242 35330 ft 507 kts 54°
2026-04-20 17:20 33.60506 -80.15850 35367 ft 507 kts 54°
2026-04-20 17:21 33.63839 -80.08364 35372 ft 508 kts 55°
2026-04-20 17:21 33.67129 -80.00853 35372 ft 508 kts 55°
2026-04-20 17:22 33.70435 -79.93434 35397 ft 506 kts 55°
2026-04-20 17:22 33.73749 -79.85977 35377 ft 506 kts 55°
2026-04-20 17:23 33.77039 -79.78500 35337 ft 506 kts 55°
2026-04-20 17:23 33.80327 -79.71032 35298 ft 505 kts 55°
2026-04-20 17:24 33.83625 -79.63540 35283 ft 506 kts 55°
2026-04-20 17:24 33.86890 -79.56096 35280 ft 506 kts 56°
2026-04-20 17:25 33.90176 -79.48592 35285 ft 507 kts 56°
2026-04-20 17:25 33.93470 -79.41070 35316 ft 507 kts 56°
2026-04-20 17:26 33.96758 -79.33533 35352 ft 507 kts 56°
2026-04-20 17:26 34.00044 -79.25985 35374 ft 507 kts 56°
2026-04-20 17:27 34.03323 -79.18500 35381 ft 505 kts 53°
2026-04-20 17:27 34.06921 -79.11247 35388 ft 503 kts 51°
2026-04-20 17:28 34.10598 -79.04042 35387 ft 503 kts 51°
2026-04-20 17:28 34.14232 -78.96822 35372 ft 503 kts 52°
2026-04-20 17:29 34.17824 -78.89621 35371 ft 503 kts 52°
2026-04-20 17:29 34.21449 -78.82378 35338 ft 504 kts 52°
2026-04-20 17:30 34.25045 -78.75105 35314 ft 504 kts 52°
2026-04-20 17:30 34.28638 -78.67821 35307 ft 504 kts 52°
2026-04-20 17:31 34.32346 -78.60648 35299 ft 497 kts 44°
2026-04-20 17:31 34.34620 -78.57579 35300 ft 484 kts 33°
2026-04-20 17:31 34.37147 -78.55028 35312 ft 477 kts 28°
2026-04-20 17:32 34.42463 -78.50246 35311 ft 475 kts 26°
2026-04-20 17:32 34.47741 -78.45368 35362 ft 478 kts 29°
2026-04-20 17:33 34.52943 -78.40317 35360 ft 479 kts 29°
2026-04-20 17:33 34.58180 -78.35332 35340 ft 478 kts 28°
2026-04-20 17:34 34.63405 -78.30415 35330 ft 478 kts 28°
2026-04-20 17:34 34.68649 -78.25411 35290 ft 479 kts 29°
2026-04-20 17:35 34.73898 -78.20387 35262 ft 479 kts 29°
2026-04-20 17:35 34.79153 -78.15374 35266 ft 480 kts 29°
2026-04-20 17:36 34.84405 -78.10348 35258 ft 481 kts 29°
2026-04-20 17:36 34.89648 -78.05329 35258 ft 482 kts 29°
2026-04-20 17:37 34.94950 -78.00281 35272 ft 483 kts 29°
2026-04-20 17:37 35.00235 -77.95225 35307 ft 483 kts 29°
2026-04-20 17:38 35.05485 -77.90188 35301 ft 483 kts 29°
2026-04-20 17:38 35.10775 -77.85105 35307 ft 483 kts 29°
2026-04-20 17:39 35.16076 -77.80010 35272 ft 484 kts 30°
2026-04-20 17:39 35.21337 -77.74938 35280 ft 483 kts 30°
2026-04-20 17:40 35.26617 -77.69843 35274 ft 483 kts 30°
2026-04-20 17:40 35.31904 -77.64740 35253 ft 484 kts 30°
2026-04-20 17:41 35.37187 -77.59621 35248 ft 484 kts 30°
2026-04-20 17:41 35.42466 -77.54499 35240 ft 484 kts 30°
2026-04-20 17:42 35.47761 -77.49356 35242 ft 485 kts 30°
2026-04-20 17:42 35.53018 -77.44237 35224 ft 485 kts 30°
2026-04-20 17:43 35.58308 -77.39076 35241 ft 485 kts 30°
2026-04-20 17:43 35.63597 -77.33905 35245 ft 485 kts 30°
2026-04-20 17:44 35.68869 -77.28751 35251 ft 485 kts 31°
2026-04-20 17:44 35.74164 -77.23561 35256 ft 485 kts 31°
2026-04-20 17:45 35.79446 -77.18373 35249 ft 486 kts 31°
2026-04-20 17:45 35.84735 -77.13167 35242 ft 486 kts 31°
2026-04-20 17:46 35.89989 -77.07996 35240 ft 486 kts 31°
2026-04-20 17:46 35.95515 -77.03371 35229 ft 477 kts 23°
2026-04-20 17:47 36.01247 -76.99266 35220 ft 476 kts 22°
2026-04-20 17:47 36.06987 -76.95149 35225 ft 478 kts 22°
2026-04-20 17:48 36.12705 -76.90922 35273 ft 478 kts 23°
2026-04-20 17:48 36.18426 -76.86721 35285 ft 478 kts 22°
2026-04-20 17:49 36.24132 -76.82557 35293 ft 478 kts 23°
2026-04-20 17:49 36.29861 -76.78344 35296 ft 478 kts 23°
2026-04-20 17:50 36.35582 -76.74127 35273 ft 478 kts 23°
2026-04-20 17:50 36.41322 -76.69901 35234 ft 479 kts 23°
2026-04-20 17:51 36.47017 -76.65698 35198 ft 480 kts 23°
2026-04-20 17:51 36.52753 -76.61451 35207 ft 480 kts 23°
2026-04-20 17:52 36.58500 -76.57198 35212 ft 480 kts 23°
2026-04-20 17:52 36.64243 -76.52933 35226 ft 481 kts 23°
2026-04-20 17:53 36.69022 -76.49377 35227 ft 481 kts 23°
2026-04-20 17:53 36.74712 -76.45142 35199 ft 482 kts 23°
2026-04-20 17:54 36.80534 -76.40801 35247 ft 481 kts 23°
2026-04-20 17:54 36.86278 -76.36507 35269 ft 481 kts 24°
2026-04-20 17:55 36.92019 -76.32208 35241 ft 481 kts 24°
2026-04-20 17:55 36.97774 -76.27891 35238 ft 481 kts 24°
2026-04-20 17:56 37.03476 -76.23603 35275 ft 479 kts 23°
2026-04-20 17:56 37.09173 -76.19316 35275 ft 475 kts 23°
2026-04-20 17:57 37.14818 -76.15059 35278 ft 470 kts 23°
2026-04-20 17:57 37.20395 -76.10849 35244 ft 466 kts 23°
2026-04-20 17:58 37.25938 -76.06660 35234 ft 467 kts 23°
2026-04-20 17:58 37.31539 -76.02424 35246 ft 472 kts 24°
2026-04-20 17:59 37.37147 -75.98159 35251 ft 475 kts 24°
2026-04-20 17:59 37.42798 -75.93856 35258 ft 475 kts 24°
2026-04-20 18:00 37.48459 -75.89544 35263 ft 475 kts 24°
2026-04-20 18:00 37.54127 -75.85219 35231 ft 476 kts 24°
2026-04-20 18:01 37.59786 -75.80963 35224 ft 476 kts 23°
2026-04-20 18:01 37.65500 -75.76732 35229 ft 476 kts 23°
2026-04-20 18:02 37.71200 -75.72446 35233 ft 476 kts 24°
2026-04-20 18:02 37.76871 -75.68160 35219 ft 477 kts 24°
2026-04-20 18:03 37.82587 -75.63864 35194 ft 478 kts 24°
2026-04-20 18:03 37.88189 -75.59232 35196 ft 483 kts 28°
2026-04-20 18:04 37.93719 -75.54369 35202 ft 484 kts 28°
2026-04-20 18:04 37.99223 -75.49549 35223 ft 484 kts 28°
2026-04-20 18:05 38.07609 -75.42382 35233 ft 482 kts 26°
2026-04-20 18:05 38.13260 -75.37778 35241 ft 482 kts 26°
2026-04-20 18:06 38.18875 -75.33206 35247 ft 482 kts 26°
2026-04-20 18:06 38.24553 -75.28632 35201 ft 480 kts 22°
2026-04-20 18:07 38.30614 -75.25330 35189 ft 471 kts 13°
2026-04-20 18:07 38.36740 -75.22519 35200 ft 471 kts 12°
2026-04-20 18:08 38.42901 -75.19571 35220 ft 473 kts 14°
2026-04-20 18:08 38.49036 -75.16528 35233 ft 472 kts 14°
2026-04-20 18:09 38.55183 -75.13548 35243 ft 472 kts 13°
2026-04-20 18:09 38.61326 -75.10579 35268 ft 472 kts 14°
2026-04-20 18:10 38.67104 -75.06459 35230 ft 489 kts 34°
2026-04-20 18:10 38.72168 -75.00587 35213 ft 493 kts 39°
2026-04-20 18:11 38.77170 -74.94559 35220 ft 493 kts 38°
2026-04-20 18:11 38.79767 -74.91712 35071 ft 488 kts 34°
2026-04-20 18:11 38.82421 -74.88998 34645 ft 485 kts 33°
2026-04-20 18:12 38.85070 -74.86330 34080 ft 484 kts 33°
2026-04-20 18:12 38.87701 -74.83653 33553 ft 482 kts 33°
2026-04-20 18:12 38.90301 -74.80954 33056 ft 479 kts 33°
2026-04-20 18:12 38.92842 -74.78279 32552 ft 477 kts 33°
2026-04-20 18:13 38.95436 -74.75545 32031 ft 474 kts 33°
2026-04-20 18:13 38.97985 -74.72876 31553 ft 471 kts 33°
2026-04-20 18:13 39.00524 -74.70228 31078 ft 467 kts 32°
2026-04-20 18:13 39.03035 -74.67600 30609 ft 464 kts 32°
2026-04-20 18:14 39.05528 -74.64977 30163 ft 461 kts 32°
2026-04-20 18:14 39.07999 -74.62371 29684 ft 458 kts 32°
2026-04-20 18:14 39.10463 -74.59773 29204 ft 456 kts 32°
2026-04-20 18:14 39.12878 -74.57228 28754 ft 452 kts 32°
2026-04-20 18:15 39.15305 -74.54666 28308 ft 450 kts 32°
2026-04-20 18:15 39.17700 -74.52090 27858 ft 447 kts 33°
2026-04-20 18:15 39.20069 -74.49487 27391 ft 445 kts 34°
2026-04-20 18:15 39.22412 -74.46895 26938 ft 443 kts 34°
2026-04-20 18:16 39.24752 -74.44320 26487 ft 441 kts 34°
2026-04-20 18:16 39.27087 -74.41773 26038 ft 438 kts 33°
2026-04-20 18:16 39.29416 -74.39240 25602 ft 436 kts 34°
2026-04-20 18:16 39.31728 -74.36710 25183 ft 433 kts 34°
2026-04-20 18:17 39.34016 -74.34189 24732 ft 432 kts 34°
2026-04-20 18:17 39.36265 -74.31701 24285 ft 430 kts 34°
2026-04-20 18:17 39.38544 -74.29181 23855 ft 428 kts 34°
2026-04-20 18:17 39.40807 -74.26684 23434 ft 426 kts 34°
2026-04-20 18:18 39.43052 -74.24206 23017 ft 423 kts 34°
2026-04-20 18:18 39.45288 -74.21738 22593 ft 421 kts 34°
2026-04-20 18:18 39.47517 -74.19270 22146 ft 419 kts 35°
2026-04-20 18:18 39.49693 -74.16846 21724 ft 417 kts 35°
2026-04-20 18:19 39.51875 -74.14386 21300 ft 415 kts 38°
2026-04-20 18:19 39.53856 -74.11654 20877 ft 415 kts 45°
2026-04-20 18:19 39.55710 -74.08802 20493 ft 412 kts 47°
2026-04-20 18:19 39.57495 -74.05926 20139 ft 407 kts 48°
2026-04-20 18:20 39.59252 -74.03073 19803 ft 401 kts 48°
2026-04-20 18:20 39.61002 -74.00280 19481 ft 395 kts 47°
2026-04-20 18:20 39.62747 -73.97553 19172 ft 389 kts 47°
2026-04-20 18:20 39.64471 -73.94881 18872 ft 383 kts 47°
2026-04-20 18:21 39.66163 -73.92242 18580 ft 377 kts 47°
2026-04-20 18:21 39.67821 -73.89638 18298 ft 371 kts 47°
2026-04-20 18:21 39.69451 -73.87066 17995 ft 366 kts 47°
2026-04-20 18:21 39.71043 -73.84551 17656 ft 363 kts 48°
2026-04-20 18:22 39.72634 -73.82038 17345 ft 358 kts 48°
2026-04-20 18:22 39.74208 -73.79553 17057 ft 353 kts 48°
2026-04-20 18:22 39.75762 -73.77099 16783 ft 349 kts 49°
2026-04-20 18:22 39.77299 -73.74671 16520 ft 346 kts 49°
2026-04-20 18:23 39.78823 -73.72261 16267 ft 343 kts 49°
2026-04-20 18:23 39.80331 -73.69874 16017 ft 340 kts 49°
2026-04-20 18:23 39.81828 -73.67504 15766 ft 338 kts 49°
2026-04-20 18:23 39.83312 -73.65150 15521 ft 335 kts 50°
2026-04-20 18:24 39.84797 -73.62791 15277 ft 339 kts 50°
2026-04-20 18:24 39.86272 -73.60450 15028 ft 338 kts 50°
2026-04-20 18:24 39.87763 -73.58081 14776 ft 336 kts 50°
2026-04-20 18:24 39.89241 -73.55731 14532 ft 334 kts 50°
2026-04-20 18:25 39.90760 -73.53454 14280 ft 332 kts 47°
2026-04-20 18:25 39.92312 -73.51236 13931 ft 330 kts 47°
2026-04-20 18:25 39.93915 -73.49102 13575 ft 328 kts 42°
2026-04-20 18:25 39.95615 -73.47117 13227 ft 326 kts 40°
2026-04-20 18:26 39.97320 -73.45220 12892 ft 324 kts 39°
2026-04-20 18:26 39.99034 -73.43317 12556 ft 323 kts 39°
2026-04-20 18:26 40.00733 -73.41392 12246 ft 321 kts 39°
2026-04-20 18:26 40.02402 -73.39466 11944 ft 319 kts 39°
2026-04-20 18:27 40.04053 -73.37547 11672 ft 317 kts 39°
2026-04-20 18:27 40.05698 -73.35643 11389 ft 315 kts 39°
2026-04-20 18:27 40.07338 -73.33755 11120 ft 313 kts 39°
2026-04-20 18:27 40.08968 -73.31882 10837 ft 311 kts 39°
2026-04-20 18:28 40.10590 -73.30018 10559 ft 310 kts 38°
2026-04-20 18:28 40.12205 -73.28156 10288 ft 308 kts 38°
2026-04-20 18:28 40.13773 -73.26311 10011 ft 306 kts 39°
2026-04-20 18:28 40.15331 -73.24430 9737 ft 304 kts 40°
2026-04-20 18:29 40.16882 -73.22551 9463 ft 302 kts 39°
2026-04-20 18:29 40.18455 -73.20747 9198 ft 298 kts 32°
2026-04-20 18:29 40.20274 -73.19597 9050 ft 286 kts
2026-04-20 18:29 40.22211 -73.19421 8939 ft 276 kts 350°
2026-04-20 18:30 40.24111 -73.19704 8820 ft 274 kts 347°
2026-04-20 18:30 40.26002 -73.20016 8640 ft 273 kts 348°
2026-04-20 18:30 40.27896 -73.20257 8351 ft 275 kts 350°
2026-04-20 18:30 40.29784 -73.20437 8102 ft 273 kts 351°
2026-04-20 18:31 40.31676 -73.20606 7822 ft 271 kts 351°
2026-04-20 18:31 40.33555 -73.20795 7539 ft 270 kts 351°
2026-04-20 18:31 40.35417 -73.21000 7256 ft 268 kts 351°
2026-04-20 18:31 40.37276 -73.21203 6947 ft 266 kts 351°
2026-04-20 18:32 40.39113 -73.21395 6622 ft 264 kts 351°
2026-04-20 18:32 40.40937 -73.21584 6275 ft 260 kts 352°
2026-04-20 18:32 40.42737 -73.21773 5846 ft 259 kts 352°
2026-04-20 18:32 40.44527 -73.21962 5412 ft 257 kts 352°
2026-04-20 18:33 40.46300 -73.22148 4983 ft 255 kts 352°
2026-04-20 18:33 40.48061 -73.22333 4581 ft 252 kts 353°
2026-04-20 18:33 40.49798 -73.22514 4211 ft 248 kts 353°
2026-04-20 18:33 40.51494 -73.22692 3866 ft 246 kts 353°
2026-04-20 18:34 40.53203 -73.22875 3530 ft 248 kts 353°
2026-04-20 18:34 40.54936 -73.23059 3228 ft 250 kts 353°
2026-04-20 18:34 40.56665 -73.23239 2961 ft 248 kts 353°
2026-04-20 18:34 40.58361 -73.23406 2838 ft 239 kts 353°
2026-04-20 18:35 40.59982 -73.23568 2749 ft 228 kts 353°
2026-04-20 18:35 40.61527 -73.23736 2665 ft 217 kts 352°
2026-04-20 18:35 40.63000 -73.23898 2580 ft 207 kts 352°
2026-04-20 18:35 40.64414 -73.24048 2388 ft 202 kts 353°
2026-04-20 18:36 40.65799 -73.24194 2126 ft 201 kts 353°
2026-04-20 18:36 40.67181 -73.24341 2018 ft 195 kts 352°
2026-04-20 18:36 40.68496 -73.24249 2004 ft 190 kts 15°
2026-04-20 18:36 40.69644 -73.23356 2025 ft 195 kts 37°
2026-04-20 18:37 40.70605 -73.22121 2062 ft 186 kts 41°
2026-04-20 18:37 40.71469 -73.20943 2034 ft 170 kts 41°
2026-04-20 18:37 40.72274 -73.19888 1913 ft 162 kts 39°
2026-04-20 18:37 40.73057 -73.18876 1716 ft 153 kts 40°
2026-04-20 18:38 40.73554 -73.18217 1588 ft 145 kts 40°
2026-04-20 18:38 40.74472 -73.17016 1339 ft 138 kts 39°
2026-04-20 18:38 40.74932 -73.16417 1214 ft 137 kts 39°
2026-04-20 18:38 40.75823 -73.15242 974 ft 136 kts 39°
2026-04-20 18:39 40.76492 -73.14360 792 ft 136 kts 39°
2026-04-20 18:39 40.76947 -73.13770 670 ft 136 kts 40°
2026-04-20 18:39 40.77614 -73.12890 490 ft 135 kts 40°
2026-04-20 18:39 40.78279 -73.12012 311 ft 135 kts 40°
2026-04-20 18:40 40.78934 -73.11149 135 ft 135 kts 40°
2026-04-20 18:40 40.79520 -73.10378 113 ft 96 kts 40°
2026-04-20 18:40 40.79867 -73.09928 113 ft 44 kts 43°
2026-04-20 18:40 40.80025 -73.09722 113 ft 29 kts 47°
2026-04-20 18:41 40.80138 -73.09569 113 ft 17 kts 45°
2026-04-20 18:41 40.80181 -73.09503 113 ft 3 kts 107°
2026-04-20 18:41 40.80154 -73.09489 113 ft 5 kts 164°
2026-04-20 18:41 40.80116 -73.09486 113 ft 5 kts 177°
2026-04-20 18:42 40.80079 -73.09484 113 ft 6 kts 181°
2026-04-20 18:42 40.80029 -73.09484 113 ft 9 kts 179°
2026-04-20 18:42 40.79960 -73.09482 113 ft 11 kts 179°
2026-04-20 18:42 40.79872 -73.09479 113 ft 14 kts 179°
2026-04-20 18:43 40.79764 -73.09475 113 ft 17 kts 179°
2026-04-20 18:43 40.79638 -73.09470 113 ft 20 kts 179°
2026-04-20 18:43 40.79500 -73.09467 113 ft 19 kts 178°
2026-04-20 18:43 40.79411 -73.09466 113 ft 8 kts 179°
2026-04-20 18:44 40.79352 -73.09462 113 ft 1 kts 173°
2026-04-20 18:44 40.79351 -73.09462 113 ft 0 kts 177°
2026-04-20 18:45 40.79305 -73.09459 113 ft 12 kts 177°
2026-04-20 18:45 40.79231 -73.09493 113 ft 12 kts 234°
2026-04-20 18:45 40.79186 -73.09564 113 ft 10 kts 229°
2026-04-20 18:45 40.79139 -73.09630 113 ft 10 kts 227°
2026-04-20 18:46 40.79107 -73.09711 113 ft 10 kts 264°
2026-04-20 18:46 40.79104 -73.09786 113 ft 6 kts 259°
2026-04-20 18:46 40.79078 -73.09800 113 ft 4 kts 180°
2026-04-20 18:46 40.79047 -73.09800 113 ft 5 kts 179°
2026-04-20 18:47 40.79018 -73.09800 113 ft 0 kts 181°
2026-04-20 18:47 40.79016 -73.09800 113 ft 0 kts 181°